• En España
  • Lista de países
  • Para 7 días
  • Temperatura del agua
  • Mapa Satelital
  • El tiempo en el mapa
  • Informadores
  • user-avatar
    Iniciar sesión

    Tiempo cada hora Zaseka

    Hoy, 21 Mayo, Lunes

    Tiempo Temperatura Precipitaciones Viento Presión Humedad
    00:00 +8°C° 0 mm 1 mps 757 mmHg 71%
    01:00 +8°C° 0 mm 1 mps 757 mmHg 72%
    02:00 +7°C° 0 mm 1 mps 757 mmHg 78%
    03:00 +8°C° 0 mm 1 mps 757 mmHg 76%
    04:00 +9°C° 0 mm 1 mps 758 mmHg 75%
    05:00 +10°C° 0 mm 1 mps 758 mmHg 73%
    06:00 +12°C° 0 mm 1 mps 758 mmHg 66%
    07:00 +15°C° 0 mm 1 mps 759 mmHg 58%
    08:00 +19°C° 0 mm 1 mps 759 mmHg 50%
    09:00 +20°C° 0 mm 1 mps 759 mmHg 45%
    10:00 +21°C° 0 mm 1 mps 759 mmHg 41%
    11:00 +22°C° 0 mm 1 mps 759 mmHg 37%
    12:00 +23°C° 0 mm 1 mps 759 mmHg 37%
    13:00 +23°C° 0 mm 1 mps 759 mmHg 36%
    14:00 +23°C° 0 mm 1 mps 758 mmHg 36%
    15:00 +23°C° 0 mm 1 mps 758 mmHg 39%
    16:00 +23°C° 0 mm 1 mps 758 mmHg 41%
    17:00 +22°C° 0 mm 1 mps 758 mmHg 44%
    18:00 +20°C° 0 mm 1 mps 758 mmHg 53%
    19:00 +18°C° 0 mm 1 mps 758 mmHg 61%
    20:00 +15°C° 0 mm 1 mps 758 mmHg 69%
    21:00 +14°C° 0 mm 1 mps 758 mmHg 72%
    22:00 +13°C° 0 mm 1 mps 759 mmHg 74%
    23:00 +12°C° 0 mm 1 mps 759 mmHg 76%

    Mañana, 22 Mayo, Martes

    Tiempo Temperatura Precipitaciones Viento Presión Humedad
    00:00 +11°C° 0 mm 1 mps 759 mmHg 78%
    01:00 +11°C° 0 mm 1 mps 759 mmHg 79%
    02:00 +10°C° 0 mm 1 mps 759 mmHg 81%
    03:00 +11°C° 0 mm 1 mps 759 mmHg 79%
    04:00 +12°C° 0 mm 1 mps 759 mmHg 78%
    05:00 +12°C° 0 mm 1 mps 759 mmHg 76%
    06:00 +14°C° 0 mm 1 mps 759 mmHg 68%
    07:00 +16°C° 0 mm 2 mps 759 mmHg 61%
    08:00 +18°C° 0 mm 2 mps 759 mmHg 53%
    09:00 +19°C° 0 mm 3 mps 758 mmHg 49%
    10:00 +20°C° 0 mm 3 mps 758 mmHg 45%
    11:00 +21°C° 0 mm 3 mps 758 mmHg 41%
    12:00 +21°C° 0 mm 3 mps 757 mmHg 42%
    13:00 +21°C° 0 mm 3 mps 757 mmHg 42%
    14:00 +21°C° 0 mm 4 mps 756 mmHg 43%
    15:00 +21°C° 0 mm 3 mps 756 mmHg 46%
    16:00 +20°C° 0 mm 3 mps 756 mmHg 49%
    17:00 +20°C° 0 mm 3 mps 755 mmHg 52%
    18:00 +19°C° 0 mm 3 mps 755 mmHg 60%
    19:00 +17°C° 0 mm 2 mps 755 mmHg 67%
    20:00 +15°C° 0 mm 2 mps 755 mmHg 74%
    21:00 +15°C° 0,1 mm 2 mps 754 mmHg 79%
    22:00 +15°C° 0,1 mm 2 mps 754 mmHg 83%
    23:00 +14°C° 0,1 mm 2 mps 754 mmHg 88%

    Pasado mañana, 23 Mayo, Miércoles

    Tiempo Temperatura Precipitaciones Viento Presión Humedad
    00:00 +14°C° 0 mm 2 mps 754 mmHg 91%
    01:00 +14°C° 0 mm 2 mps 754 mmHg 94%
    02:00 +13°C° 0 mm 2 mps 754 mmHg 97%
    03:00 +13°C° 0 mm 2 mps 754 mmHg 96%
    04:00 +14°C° 0 mm 2 mps 754 mmHg 94%
    05:00 +14°C° 0 mm 2 mps 754 mmHg 93%
    06:00 +15°C° 0 mm 2 mps 754 mmHg 89%
    07:00 +15°C° 0 mm 2 mps 754 mmHg 86%
    08:00 +16°C° 0 mm 3 mps 753 mmHg 82%
    09:00 +17°C° 0 mm 3 mps 753 mmHg 76%
    10:00 +18°C° 0 mm 3 mps 753 mmHg 70%
    11:00 +20°C° 0 mm 3 mps 753 mmHg 64%
    12:00 +20°C° 0 mm 3 mps 753 mmHg 61%
    13:00 +21°C° 0 mm 3 mps 753 mmHg 58%
    14:00 +23°C° 0 mm 2 mps 752 mmHg 54%
    15:00 +21°C° 0,4 mm 2 mps 752 mmHg 61%
    16:00 +21°C° 0,4 mm 2 mps 752 mmHg 68%
    17:00 +20°C° 0,4 mm 2 mps 752 mmHg 75%
    18:00 +19°C° 0,1 mm 1 mps 752 mmHg 80%
    19:00 +18°C° 0,1 mm 1 mps 752 mmHg 85%
    20:00 +16°C° 0,1 mm 1 mps 752 mmHg 90%
    21:00 +15°C° 0 mm 1 mps 752 mmHg 91%
    22:00 +14°C° 0 mm 1 mps 752 mmHg 93%
    23:00 +14°C° 0 mm 1 mps 752 mmHg 94%

    24 Mayo, Jueves

    Tiempo Temperatura Precipitaciones Viento Presión Humedad
    00:00 +13°C° 0,4 mm 1 mps 752 mmHg 94%
    01:00 +13°C° 0,4 mm 1 mps 752 mmHg 95%
    02:00 +13°C° 0,4 mm 2 mps 752 mmHg 95%
    03:00 +13°C° 0,1 mm 2 mps 752 mmHg 94%
    04:00 +13°C° 0,1 mm 2 mps 752 mmHg 92%
    05:00 +13°C° 0,1 mm 2 mps 752 mmHg 91%
    06:00 +13°C° 0 mm 3 mps 752 mmHg 85%
    07:00 +16°C° 0 mm 3 mps 752 mmHg 79%
    08:00 +17°C° 0 mm 3 mps 753 mmHg 74%
    09:00 +17°C° 0,2 mm 4 mps 753 mmHg 75%
    10:00 +15°C° 0,2 mm 4 mps 753 mmHg 77%
    11:00 +15°C° 0,2 mm 5 mps 754 mmHg 79%
    12:00 +15°C° 0 mm 5 mps 754 mmHg 76%
    13:00 +14°C° 0 mm 4 mps 754 mmHg 73%
    14:00 +14°C° 0 mm 4 mps 755 mmHg 71%
    15:00 +14°C° 0 mm 4 mps 755 mmHg 64%
    16:00 +15°C° 0 mm 4 mps 755 mmHg 57%
    17:00 +17°C° 0 mm 4 mps 756 mmHg 50%
    18:00 +14°C° 0 mm 4 mps 756 mmHg 54%
    19:00 +12°C° 0 mm 3 mps 757 mmHg 58%
    20:00 +10°C° 0 mm 2 mps 757 mmHg 62%
    21:00 +9°C° 0 mm 2 mps 758 mmHg 63%
    22:00 +8°C° 0 mm 2 mps 758 mmHg 63%
    23:00 +7°C° 0 mm 2 mps 758 mmHg 64%

    25 Mayo, Viernes

    Tiempo Temperatura Precipitaciones Viento Presión Humedad
    00:00 +7°C° 0 mm 2 mps 759 mmHg 64%
    01:00 +6°C° 0 mm 2 mps 759 mmHg 64%
    02:00 +5°C° 0 mm 2 mps 760 mmHg 64%
    03:00 +6°C° 0 mm 2 mps 760 mmHg 63%
    04:00 +6°C° 0 mm 2 mps 760 mmHg 62%
    05:00 +6°C° 0 mm 2 mps 761 mmHg 60%
    06:00 +8°C° 0 mm 3 mps 761 mmHg 54%
    07:00 +10°C° 0 mm 3 mps 761 mmHg 48%
    08:00 +12°C° 0 mm 3 mps 761 mmHg 41%
    09:00 +13°C° 0 mm 3 mps 761 mmHg 40%
    10:00 +14°C° 0 mm 3 mps 761 mmHg 38%
    11:00 +16°C° 0 mm 3 mps 762 mmHg 36%
    12:00 +17°C° 0 mm 3 mps 761 mmHg 36%
    13:00 +17°C° 0 mm 3 mps 761 mmHg 35%
    14:00 +18°C° 0 mm 3 mps 761 mmHg 35%
    15:00 +18°C° 0 mm 3 mps 761 mmHg 36%
    16:00 +18°C° 0 mm 2 mps 761 mmHg 38%
    17:00 +18°C° 0 mm 2 mps 761 mmHg 40%
    18:00 +16°C° 0 mm 2 mps 761 mmHg 48%
    19:00 +14°C° 0 mm 2 mps 761 mmHg 55%
    20:00 +12°C° 0 mm 1 mps 761 mmHg 63%
    21:00 +12°C° 0 mm 1 mps 761 mmHg 65%
    22:00 +10°C° 0 mm 2 mps 761 mmHg 66%
    23:00 +9°C° 0 mm 2 mps 761 mmHg 68%

    26 Mayo, Sábado

    Tiempo Temperatura Precipitaciones Viento Presión Humedad
    00:00 +9°C° 0 mm 2 mps 761 mmHg 69%
    01:00 +8°C° 0 mm 2 mps 762 mmHg 70%
    02:00 +8°C° 0 mm 2 mps 762 mmHg 71%
    03:00 +8°C° 0 mm 2 mps 762 mmHg 70%
    04:00 +9°C° 0 mm 2 mps 762 mmHg 69%
    05:00 +10°C° 0 mm 2 mps 762 mmHg 69%
    06:00 +13°C° 0 mm 2 mps 762 mmHg 62%
    07:00 +15°C° 0 mm 2 mps 762 mmHg 55%
    08:00 +18°C° 0 mm 3 mps 763 mmHg 49%
    09:00 +19°C° 0 mm 3 mps 762 mmHg 45%
    10:00 +20°C° 0 mm 3 mps 762 mmHg 41%
    11:00 +22°C° 0 mm 3 mps 762 mmHg 38%
    12:00 +22°C° 0 mm 3 mps 762 mmHg 37%
    13:00 +23°C° 0 mm 4 mps 762 mmHg 37%
    14:00 +23°C° 0 mm 4 mps 761 mmHg 37%
    15:00 +24°C° 0 mm 3 mps 761 mmHg 40%
    16:00 +22°C° 0 mm 3 mps 761 mmHg 43%
    17:00 +22°C° 0 mm 3 mps 760 mmHg 46%
    18:00 +20°C° 0 mm 2 mps 760 mmHg 54%
    19:00 +18°C° 0 mm 2 mps 760 mmHg 62%
    20:00 +16°C° 0 mm 2 mps 760 mmHg 70%
    21:00 +15°C° 0 mm 2 mps 760 mmHg 73%
    22:00 +14°C° 0 mm 2 mps 760 mmHg 75%
    23:00 +13°C° 0 mm 2 mps 760 mmHg 78%
    Mostrar más